Weather History for Liepaja, Latvia

Change the Weather History Date:

Thursday, February 7, 2013

  Actual Average Record
Temperature  
Mean Temperature 32 °F -  
Max Temperature 35 °F 32 °F - ()
Min Temperature 28 °F 23 °F - ()
Degree Days  
Heating Degree Days 34    
Moisture  
Dew Point 29 °F    
Average Humidity 93    
Maximum Humidity 100    
Minimum Humidity 75    
Precipitation  
Precipitation 0.01 in 0.04 in - ()
Sea Level Pressure  
Sea Level Pressure 29.67 in    
Wind  
Wind Speed 5 mph ()    
Max Wind Speed 9 mph    
Max Gust Speed -    
Visibility 5.7 miles    
Events      
T = Trace of Precipitation, MM = Missing Value Source: Averaged Metar Reports

Daily Weather History Graph

Daily Weather History Graph

Search for Another Location

Airport:

Trip Planner

Search our weather history database for the weather conditions in past years. The results will help you decide how hot, cold, wet, or windy it might be!

Date:

Astronomy

Feb. 07, 2013 Rise Set
Actual Time 8:20 AM EET 5:20 PM EET
Civil Twilight 7:39 AM EET 6:00 PM EET
Nautical Twilight 6:54 AM EET 6:45 PM EET
Astronomical Twilight 6:11 AM EET 7:29 PM EET
Moon 6:04 AM EET (2/7) 2:03 PM EET (2/7)
Length of Visible Light 10h 21m
Length of Day
8h 59m
Waning Crescent, 11% of the Moon is Illuminated
Feb 7
Waning Crescent
Feb 10
New
Feb 17
First Quarter
Feb 25
Full
Mar 4
Last Quarter

Hourly Weather History & Observations

Time (EET) Temp. Windchill Dew Point Humidity Pressure Visibility Wind Dir Wind Speed Gust Speed Precip Events Conditions
12:20 AM 33.8 °F 28.6 °F 30.2 °F 87% 29.53 in 6.2 mi SE 5.8 mph - N/A   Overcast
12:50 AM 33.8 °F 27.7 °F 30.2 °F 87% 29.53 in 6.2 mi SE 6.9 mph - N/A   Overcast
1:20 AM 32.0 °F 27.5 °F 30.2 °F 93% 29.53 in 6.2 mi SE 4.6 mph - N/A   Scattered Clouds
1:50 AM 30.2 °F 24.3 °F 30.2 °F 100% 29.53 in - SE 5.8 mph - N/A   Clear
2:00 AM 30 °F - 28 °F 86% 29.56 in 6 mi ESE 4.5 mph - -  
2:20 AM 30.2 °F 24.3 °F 30.2 °F 100% 29.53 in - SE 5.8 mph - N/A   Clear
2:50 AM 30.2 °F 23.4 °F 30.2 °F 100% 29.53 in - SE 6.9 mph - N/A   Clear
3:20 AM 30.2 °F 22.6 °F 30.2 °F 100% 29.53 in - SE 8.1 mph - N/A   Clear
3:50 AM 30.2 °F 23.4 °F 28.4 °F 93% 29.53 in - SE 6.9 mph - N/A   Clear
4:20 AM 30.2 °F 24.3 °F 28.4 °F 93% 29.53 in 6.2 mi SE 5.8 mph - N/A   Partly Cloudy
4:50 AM 30.2 °F 24.3 °F 28.4 °F 93% 29.56 in - SE 5.8 mph - N/A   Clear
5:20 AM 30.2 °F 25.4 °F 28.4 °F 93% 29.56 in 6.2 mi SE 4.6 mph - N/A   Partly Cloudy
5:50 AM 30.2 °F 24.3 °F 28.4 °F 93% 29.56 in - ESE 5.8 mph - N/A   Clear
6:20 AM 30.2 °F 24.3 °F 28.4 °F 93% 29.56 in 6.2 mi SE 5.8 mph - N/A   Mostly Cloudy
6:50 AM 30.2 °F 24.3 °F 28.4 °F 93% 29.59 in - SE 5.8 mph - N/A   Clear
7:20 AM 30.2 °F 23.4 °F 28.4 °F 93% 29.59 in 6.2 mi ESE 6.9 mph - N/A   Mostly Cloudy
7:50 AM 30.2 °F 25.4 °F 28.4 °F 93% 29.59 in 6.2 mi SSE 4.6 mph - N/A   Overcast
8:00 AM 30 °F - 28 °F 87% 29.62 in 6 mi SE 8.9 mph - -   Mostly Cloudy
8:20 AM 30.2 °F 25.4 °F 30.2 °F 100% 29.59 in 5.0 mi SE 4.6 mph - N/A   Overcast
8:50 AM 30.2 °F 23.4 °F 30.2 °F 100% 29.62 in 5.0 mi SE 6.9 mph - N/A   Overcast
9:20 AM 30.2 °F 24.3 °F 30.2 °F 100% 29.62 in 5.0 mi SE 5.8 mph - N/A   Overcast
9:50 AM 30.2 °F 23.4 °F 30.2 °F 100% 29.65 in 5.0 mi SE 6.9 mph - N/A   Overcast
10:20 AM 33.8 °F 28.6 °F 30.2 °F 87% 29.65 in 6.2 mi SSE 5.8 mph - N/A   Mostly Cloudy
10:50 AM 33.8 °F 27.7 °F 30.2 °F 87% 29.65 in 6.2 mi SE 6.9 mph - N/A   Partly Cloudy
11:20 AM 33.8 °F 27.7 °F 30.2 °F 87% 29.68 in 6.2 mi SE 6.9 mph - N/A   Scattered Clouds
11:50 AM 35.6 °F 30.7 °F 30.2 °F 81% 29.68 in 6.2 mi SSE 5.8 mph - N/A   Overcast
12:20 PM 35.6 °F 29.2 °F 30.2 °F 81% 29.68 in 6.2 mi SSE 8.1 mph - N/A   Mostly Cloudy
12:50 PM 35.6 °F 29.9 °F 30.2 °F 81% 29.68 in 6.2 mi SSE 6.9 mph - N/A   Mostly Cloudy
1:20 PM 37.4 °F 32.8 °F 32.0 °F 81% 29.71 in 6.2 mi SSE 5.8 mph - N/A   Mostly Cloudy
1:50 PM 33.8 °F 28.6 °F 30.2 °F 87% 29.71 in 6.2 mi SE 5.8 mph - N/A   Mostly Cloudy
2:00 PM 34 °F - 29 °F 75% 29.74 in 10 mi SE 6.7 mph - -   Partly Cloudy
2:20 PM 35.6 °F 30.7 °F 30.2 °F 81% 29.71 in 6.2 mi SE 5.8 mph - N/A   Mostly Cloudy
2:50 PM 33.8 °F 27.7 °F 30.2 °F 87% 29.71 in 6.2 mi SE 6.9 mph - N/A   Mostly Cloudy
3:20 PM 33.8 °F 27.7 °F 30.2 °F 87% 29.74 in 6.2 mi ESE 6.9 mph - N/A   Mostly Cloudy
3:50 PM 32.0 °F 26.4 °F 30.2 °F 93% 29.74 in 6.2 mi ESE 5.8 mph - N/A   Scattered Clouds
4:20 PM 32.0 °F 27.5 °F 30.2 °F 93% 29.74 in 6.2 mi ESE 4.6 mph - N/A   Scattered Clouds
4:50 PM 32.0 °F 26.4 °F 30.2 °F 93% 29.74 in 5.6 mi East 5.8 mph - N/A   Scattered Clouds
5:20 PM 32.0 °F 27.5 °F 30.2 °F 93% 29.77 in 5.0 mi East 4.6 mph - N/A   Overcast
5:50 PM 32.0 °F 28.7 °F 30.2 °F 93% 29.77 in 5.0 mi East 3.5 mph - N/A   Mostly Cloudy
6:20 PM 30.2 °F 26.7 °F 28.4 °F 93% 29.77 in 6.2 mi East 3.5 mph - N/A   Partly Cloudy
6:50 PM 30.2 °F 26.7 °F 28.4 °F 93% 29.77 in 5.0 mi ENE 3.5 mph - N/A   Unknown
7:20 PM 30.2 °F 25.4 °F 28.4 °F 93% 29.77 in 5.0 mi ENE 4.6 mph - N/A   Partly Cloudy
7:50 PM 28.4 °F 23.3 °F 28.4 °F 100% 29.77 in 4.3 mi East 4.6 mph - N/A   Partly Cloudy
8:00 PM 28 °F - 27 °F 93% 29.81 in 6 mi NE 4.5 mph - -   Scattered Clouds
8:20 PM 28.4 °F 24.6 °F 28.4 °F 100% 29.77 in 5.0 mi ENE 3.5 mph - N/A   Partly Cloudy
8:50 PM 28.4 °F 23.3 °F 28.4 °F 100% 29.77 in 5.0 mi ENE 4.6 mph - N/A   Partly Cloudy
9:20 PM 28.4 °F 23.3 °F 28.4 °F 100% 29.80 in 5.0 mi East 4.6 mph - N/A   Partly Cloudy
9:50 PM 28.4 °F 23.3 °F 28.4 °F 100% 29.80 in 5.0 mi ENE 4.6 mph - N/A   Unknown
10:20 PM 28.4 °F 24.6 °F 28.4 °F 100% 29.80 in 5.0 mi NE 3.5 mph - N/A   Unknown
10:50 PM 28.4 °F 24.6 °F 28.4 °F 100% 29.77 in 3.7 mi NNE 3.5 mph - N/A   Unknown
11:20 PM 28.4 °F 24.6 °F 28.4 °F 100% 29.80 in 4.3 mi NE 3.5 mph - N/A   Mist
11:50 PM 28.4 °F 23.3 °F 28.4 °F 100% 29.80 in 5.0 mi NE 4.6 mph - N/A   Unknown